Weather History for KAND - February, 2013

Change the Weather History Date:

Wednesday, February 27, 2013

  Actual Average Record
Temperature  
Mean Temperature 50 °F -  
Max Temperature 57 °F 57 °F 78 °F (1951)
Min Temperature 42 °F 35 °F 13 °F (1963)
Degree Days  
Heating Degree Days 16    
Moisture  
Dew Point 34 °F    
Average Humidity 59    
Maximum Humidity 76    
Minimum Humidity 40    
Precipitation  
Precipitation 0.00 in - - ()
Sea Level Pressure  
Sea Level Pressure 29.79 in    
Wind  
Wind Speed 14 mph (WSW)    
Max Wind Speed 18 mph    
Max Gust Speed 25 mph    
Visibility 10 miles    
Events      
Averages and records for this station are not official NWS values.
T = Trace of Precipitation, MM = Missing Value Source: NWS Daily Summary

Daily Weather History Graph

Daily Weather History Graph

Search for Another Location

Airport or City:

Trip Planner

Search our weather history database for the weather conditions in past years. The results will help you decide how hot, cold, wet, or windy it might be!

Date:

Astronomy

Feb. 27, 2013 Rise Set
Actual Time 7:02 AM EST 6:25 PM EST
Civil Twilight 6:36 AM EST 6:50 PM EST
Nautical Twilight 6:07 AM EST 7:19 PM EST
Astronomical Twilight 5:38 AM EST 7:49 PM EST
Moon 8:36 PM EST (2/27) 7:43 AM EST (2/27)
Length of Visible Light 12h 13m
Length of Day
11h 23m
Waning Gibbous, 96% of the Moon is Illuminated
Feb 27
Waning Gibbous
Mar 4
Last Quarter
Mar 11
New
Mar 19
First Quarter
Mar 27
Full

Hourly Weather History & Observations

Time (EST) Temp. Windchill Dew Point Humidity Pressure Visibility Wind Dir Wind Speed Gust Speed Precip Events Conditions
12:56 AM 44.1 °F 38.6 °F 37.0 °F 76% 29.73 in 10.0 mi West 10.4 mph - N/A   Mostly Cloudy
1:56 AM 44.1 °F 37.7 °F 36.0 °F 73% 29.74 in 10.0 mi West 12.7 mph - N/A   Overcast
2:56 AM 44.1 °F 36.2 °F 34.0 °F 68% 29.75 in 10.0 mi West 18.4 mph - N/A   Scattered Clouds
3:56 AM 43.0 °F 35.4 °F 34.0 °F 71% 29.74 in 10.0 mi West 16.1 mph 25.3 mph N/A   Overcast
4:56 AM 43.0 °F 35.7 °F 33.1 °F 68% 29.76 in 10.0 mi West 15.0 mph 19.6 mph N/A   Overcast
5:56 AM 43.0 °F 36.4 °F 33.1 °F 68% 29.78 in 10.0 mi WSW 12.7 mph 24.2 mph N/A   Overcast
6:56 AM 42.1 °F 35.2 °F 34.0 °F 73% 29.79 in 10.0 mi WSW 12.7 mph - N/A   Overcast
7:56 AM 42.1 °F 35.7 °F 33.1 °F 70% 29.81 in 10.0 mi WSW 11.5 mph - N/A   Clear
8:56 AM 44.1 °F 37.4 °F 33.1 °F 65% 29.82 in 10.0 mi WSW 13.8 mph 19.6 mph N/A   Clear
9:56 AM 46.0 °F 39.6 °F 33.1 °F 61% 29.85 in 10.0 mi West 15.0 mph 21.9 mph N/A   Clear
10:56 AM 48.0 °F - 34.0 °F 58% 29.85 in 10.0 mi SW 16.1 mph 21.9 mph N/A   Partly Cloudy
11:56 AM 50.0 °F - 34.0 °F 54% 29.85 in 10.0 mi WSW 16.1 mph 24.2 mph N/A   Clear
12:56 PM 52.0 °F - 35.1 °F 53% 29.83 in 10.0 mi WSW 18.4 mph 24.2 mph N/A   Clear
1:56 PM 54.0 °F - 35.1 °F 49% 29.81 in 10.0 mi SW 18.4 mph 25.3 mph N/A   Clear
2:56 PM 55.0 °F - 35.1 °F 47% 29.79 in 10.0 mi SW 16.1 mph 25.3 mph N/A   Clear
3:56 PM 57.0 °F - 36.0 °F 45% 29.78 in 10.0 mi SW 15.0 mph - N/A   Clear
4:56 PM 55.9 °F - 34.0 °F 44% 29.77 in 10.0 mi SW 18.4 mph 24.2 mph N/A   Clear
5:56 PM 55.0 °F - 30.9 °F 40% 29.78 in 10.0 mi West 15.0 mph 24.2 mph N/A   Clear
6:56 PM 52.0 °F - 32.0 °F 47% 29.79 in 10.0 mi WSW 10.4 mph - N/A   Clear
7:56 PM 51.1 °F - 33.1 °F 50% 29.80 in 10.0 mi West 9.2 mph - N/A   Clear
9:56 PM 48.0 °F - 33.1 °F 56% 29.80 in 10.0 mi West 4.6 mph - N/A   Clear
11:56 PM 46.0 °F 41.4 °F 35.1 °F 66% 29.79 in 10.0 mi WNW 9.2 mph - N/A   Clear